User: anonymous   Login
Location: La Comballaz
(46.3780°N, 7.0817°E)
Time: 08:30:00
(UTC+00:00)
Language:

CUBEBUG 2 - Orbit

View from above orbital plane
View from above orbital plane
View from above satellite
View from above satellite

Ground track
Ground track

The orbit data is extracted from the following two-line orbital elements,

1 39440U 13066AA  21130.90149933  .00000223  00000-0  37882-4 0  9990
2 39440  97.6734 102.1050 0079891 358.5458   1.5508 14.76225578400885
Epoch (UTC): 10 May 2021 21:38:09
Eccentricity: 0.0079891
inclination: 97.6734°
perigee height: 585 km
apogee height: 697 km
right ascension of ascending node: 102.1050°
argument of perigee: 358.5458°
revolutions per day: 14.76225578
mean anomaly at epoch: 1.5508°
orbit number at epoch: 40088

The dashed part of the orbit path shows where the satellite is in the earth's shadow,  

DLR